This is the latest recevied weather packets stored in our database for station/object N3OZD-10. If no packets are shown the sender has not sent any weather packets the latest 10 day(s).
| Time | Temp. | Humidity | Pressure | Rain* | Wind** | Luminosity | Snow |
|---|---|---|---|---|---|---|---|
| 1777564054 | 17.22° C | 59% | 1008.3 hPa | 0 mm | - | - | - |
| 1777563755 | 17.22° C | 56% | 1008.4 hPa | 0 mm | - | - | - |
| 1777563454 | 17.22° C | 60% | 1008.3 hPa | 0 mm | - | - | - |
| 1777563157 | 16.67° C | 62% | 1008.5 hPa | 0 mm | - | - | - |
| 1777562855 | 16.67° C | 58% | 1008.5 hPa | 0 mm | - | - | - |
| 1777562556 | 16.67° C | 65% | 1008.6 hPa | 0 mm | - | - | - |
| 1777562256 | 16.67° C | 63% | 1008.6 hPa | 0 mm | - | - | - |
| 1777561956 | 16.67° C | 62% | 1008.6 hPa | 0 mm | - | - | - |
| 1777561655 | 17.22° C | 61% | 1008.5 hPa | 0 mm | - | - | - |
| 1777561354 | 16.67° C | 63% | 1008.6 hPa | 0 mm | - | - | - |
| 1777561054 | 16.67° C | 64% | 1008.6 hPa | 0 mm | - | - | - |
| 1777560754 | 16.11° C | 66% | 1008.7 hPa | 0 mm | - | - | - |
| 1777560457 | 16.11° C | 66% | 1008.8 hPa | 0 mm | - | - | - |
| 1777560154 | 16.11° C | 70% | 1008.9 hPa | 0 mm | - | - | - |
| 1777559854 | 16.11° C | 66% | 1008.9 hPa | 0 mm | - | - | - |
| 1777559554 | 16.11° C | 67% | 1009 hPa | 0 mm | - | - | - |
| 1777559257 | 16.11° C | 68% | 1009.1 hPa | 0 mm | - | - | - |
| 1777558954 | 15.56° C | 66% | 1009 hPa | 0 mm | - | - | - |
| 1777558656 | 15.56° C | 70% | 1008.9 hPa | 0 mm | - | - | - |
| 1777558354 | 15° C | 65% | 1008.9 hPa | 0 mm | - | - | - |
| 1777558058 | 15.56° C | 64% | 1008.8 hPa | 0 mm | - | - | - |
| 1777557754 | 15.56° C | 68% | 1008.7 hPa | 0 mm | - | - | - |
| 1777557454 | 15.56° C | 72% | 1008.8 hPa | 0 mm | - | - | - |
| 1777557154 | 15° C | 72% | 1008.8 hPa | 0 mm | - | - | - |
| 1777556856 | 15° C | 71% | 1008.7 hPa | 0 mm | - | - | - |
* Rain latest hour (hover to see other rain measurements)
** Current wind speed in m/s (hover to see current wind gust speed)